Theta_e
317 316 316 324 328 328 328 331 335 336 338 335 336 338 340 337 340 344 332 333 333 333 331 332 331 330 327 326 326 326 324 314 311 313 310 308 307 305 305 304 304 305 309 310 323 325 329 330 330
317 315 323 325 325 325 326 332 335 336 335 336 335 336 337 336 332 331 332 331 332 332 330 330 328 325 325 324 323 323 314 310 309 309 308 306 305 304 304 303 303 303 309 321 325 324 324 329 329
314 317 325 326 326 325 326 332 334 334 334 335 336 334 333 332 331 330 332 331 330 330 329 326 325 325 324 321 320 317 310 308 306 306 307 304 303 303 303 303 303 303 303 307 317 317 318 327 328
320 322 323 325 325 328 329 329 333 334 333 333 333 334 332 331 332 332 329 330 329 328 326 324 324 323 320 318 314 311 307 306 305 304 304 303 302 302 302 302 302 302 302 302 303 304 307 324 328
320 322 325 326 326 328 328 330 334 335 333 332 331 333 332 332 331 331 329 327 327 328 327 323 318 310 307 307 306 305 305 304 304 303 303 302 303 303 302 302 302 302 302 302 302 304 307 322 326
323 323 324 324 324 325 331 332 334 334 333 332 332 333 332 330 330 328 326 327 327 325 323 320 313 309 307 307 307 306 305 304 303 303 303 304 305 305 304 303 303 302 302 302 301 303 307 319 323
323 324 324 324 324 325 331 332 333 334 332 332 331 333 331 330 329 327 327 325 324 323 322 323 320 315 315 315 314 314 312 312 313 312 311 310 309 307 306 305 305 304 303 302 301 301 306 311 315
323 324 324 323 324 325 332 333 333 333 333 330 330 332 331 330 328 326 326 325 324 323 321 319 319 318 319 319 317 317 316 316 315 315 315 314 314 310 309 309 309 307 304 304 303 301 302 310 316
322 323 323 323 324 326 331 334 332 332 331 330 330 330 330 330 327 326 325 325 325 323 322 320 320 320 320 319 318 318 317 317 317 316 315 315 317 316 315 311 308 308 309 305 304 302 301 303 314
323 324 324 323 322 326 331 332 333 332 331 331 331 330 330 329 327 326 325 325 325 325 323 322 319 318 318 319 318 318 316 319 318 317 315 317 315 315 313 314 309 308 310 310 309 306 305 307 309
323 324 322 322 326 328 331 333 333 334 333 332 331 331 329 328 327 326 325 325 324 325 323 323 320 314 318 322 322 321 320 319 319 316 316 318 316 318 317 316 316 314 312 314 314 314 312 312 311
320 320 321 325 329 331 332 331 330 331 331 330 331 330 329 328 327 325 325 324 324 324 323 324 324 317 315 319 319 319 318 318 318 318 316 318 317 317 318 316 316 316 315 314 314 314 315 314 313
319 320 323 326 329 331 330 330 331 330 330 330 330 329 328 327 326 326 325 324 324 324 325 324 322 319 318 313 318 319 319 318 316 318 318 317 318 318 318 318 318 317 316 315 315 315 315 315 315
322 324 326 328 330 330 331 331 330 330 330 330 329 329 328 327 326 325 325 324 325 325 325 324 320 319 316 318 313 317 314 316 318 318 316 312 315 318 318 317 317 317 317 316 316 315 315 315 315
324 325 327 328 329 330 329 330 329 329 330 330 329 328 327 326 326 325 325 326 326 325 323 321 319 319 317 314 315 315 316 315 316 314 313 313 313 313 314 317 317 317 316 316 317 317 316 316 315
322 324 324 327 328 327 326 322 327 329 329 329 328 327 327 326 326 325 326 327 325 322 322 320 319 320 315 314 314 315 314 315 314 312 311 310 308 307 307 308 307 306 307 312 314 315 316 316 316
321 320 322 323 325 327 327 322 327 328 328 328 327 326 326 326 326 326 326 326 324 321 320 321 319 319 315 315 316 315 316 315 310 307 307 306 306 306 305 305 305 305 306 307 307 309 310 309 313
316 318 319 319 323 325 323 324 327 328 328 327 326 326 326 326 326 326 326 323 323 322 322 321 318 317 316 317 318 316 313 309 306 306 304 304 304 304 304 304 303 303 305 306 306 305 307 308 309
318 316 317 318 319 322 321 323 323 328 328 327 326 326 326 327 325 325 325 322 319 320 319 317 317 317 316 313 311 309 309 308 308 306 305 305 304 301 300 300 299 298 300 301 303 304 305 306 307
320 320 319 319 319 321 322 322 323 325 328 327 326 326 326 325 319 323 322 319 319 315 316 315 312 308 307 307 306 304 305 306 304 303 303 302 301 301 300 299 297 297 297 298 298 298 300 302 305
321 321 322 321 322 322 323 323 324 325 326 327 326 326 327 323 320 318 320 318 318 313 309 307 306 307 303 303 304 303 305 305 305 304 303 301 300 298 296 296 296 296 297 297 297 298 298 298 299
322 321 320 321 322 323 323 322 322 325 327 326 322 320 319 317 313 315 314 315 311 306 309 309 309 304 303 302 302 301 302 303 303 302 301 300 297 297 297 297 297 297 297 297 297 296 297 297 298
321 319 321 322 323 323 322 323 324 324 322 318 316 318 316 313 310 309 308 309 310 310 310 309 306 303 302 302 301 299 299 301 301 301 300 300 298 298 298 297 297 297 297 297 296 296 297 297 297
318 320 320 321 322 323 322 322 325 323 319 319 314 314 312 309 306 307 310 309 310 310 307 306 303 303 302 301 300 299 299 300 301 301 300 300 300 299 298 298 298 297 296 296 296 296 295 295 295
320 320 320 320 321 324 320 320 323 318 315 315 314 313 310 307 308 310 309 310 308 306 306 305 303 304 302 301 301 299 299 299 300 300 300 300 300 299 299 298 297 296 295 294 294 294 294 294 293
319 318 319 319 318 321 318 321 322 315 312 312 312 312 310 310 311 311 311 309 309 306 305 305 305 304 302 301 300 301 301 300 300 300 300 299 299 299 297 296 296 295 294 293 293 291 292 293 293
320 319 320 319 320 320 318 321 317 314 313 312 312 312 312 313 310 309 308 309 307 306 307 306 305 304 302 301 301 301 301 301 300 301 300 299 298 297 296 295 295 293 292 292 292 291 291 292 292
319 319 320 320 327 323 317 317 321 316 315 312 312 313 311 309 308 308 308 307 306 306 306 305 303 303 302 302 301 301 301 301 299 299 299 297 297 296 295 294 293 293 292 291 291 292 291 290 291
317 317 319 320 321 324 319 323 316 315 315 312 312 312 312 310 310 308 307 305 304 305 306 305 304 304 302 302 301 300 300 300 299 298 297 297 296 295 294 294 293 292 293 292 290 291 289 291 291
317 318 317 323 322 319 319 320 314 314 312 311 311 311 311 311 308 305 304 304 303 305 306 306 305 304 301 301 300 299 300 299 298 297 297 296 296 295 294 293 292 292 291 290 290 290 291 289 289
Wind_Speed
5 5 4 4 7 6 11 4 2 7 7 3 5 1 4 12 6 3 12 12 14 13 10 7 4 2 0 5 8 9 10 3 2 2 2 3 3 3 3 3 2 2 4 6 5 5 7 9 8
5 4 3 5 7 10 7 3 6 5 7 11 9 5 3 5 6 13 12 14 14 13 10 7 5 2 3 6 7 6 3 1 2 2 3 4 4 4 4 4 3 2 2 5 3 3 6 8 9
4 5 8 5 8 11 6 3 3 10 9 6 5 5 3 4 10 11 14 15 13 12 10 7 3 2 4 4 4 3 2 4 4 4 4 5 4 4 4 4 4 2 1 4 3 8 5 10 10
3 5 7 9 13 0 4 0 4 10 7 4 7 8 8 6 9 11 16 14 12 10 7 1 3 5 4 4 4 5 5 5 5 4 4 4 4 4 4 5 5 5 4 4 3 6 7 9 11
4 6 9 10 8 2 3 3 12 9 7 8 5 7 10 6 12 17 16 13 9 9 7 4 5 5 6 7 7 6 6 6 6 5 4 4 5 5 5 5 6 6 6 5 4 5 5 7 12
9 6 8 10 8 3 1 5 9 7 8 8 9 11 8 11 15 15 14 11 9 8 9 8 8 9 10 9 8 8 7 7 7 6 6 6 6 5 5 6 6 6 7 7 5 4 4 8 10
12 7 9 8 7 7 2 7 9 5 8 6 10 5 8 15 15 16 13 11 11 10 11 11 10 12 12 12 11 10 10 10 10 9 9 8 7 6 5 6 6 6 7 7 7 5 4 4 9
7 6 7 7 6 5 6 9 5 7 6 10 7 5 10 20 20 17 13 11 11 11 10 11 11 10 10 10 10 9 8 8 7 8 7 8 7 7 6 7 7 6 6 7 7 6 5 4 3
6 7 8 5 5 4 8 8 5 5 11 6 6 5 12 24 22 18 14 12 10 9 10 12 10 7 6 5 4 4 4 4 4 5 5 6 4 4 5 6 6 5 5 5 5 5 5 3 3
11 7 2 5 6 6 8 9 11 10 13 8 7 8 22 24 22 19 16 14 12 11 9 7 6 4 2 1 1 1 2 2 3 3 5 4 5 5 5 7 6 5 5 5 6 5 5 4 2
6 10 4 2 6 5 9 8 7 8 10 6 12 21 23 22 20 16 16 14 14 13 9 7 5 1 2 3 1 2 3 4 4 7 7 7 8 7 7 7 6 6 8 4 6 6 4 6 3
9 5 5 2 1 5 10 9 6 5 4 2 14 22 24 22 19 16 16 14 14 12 9 7 6 2 3 3 1 1 1 3 4 7 9 7 7 8 9 9 8 8 7 7 7 7 8 8 7
9 3 3 3 4 5 7 4 1 3 2 9 19 23 22 20 19 16 15 14 14 12 10 9 7 5 5 6 3 2 2 3 3 5 6 7 7 9 9 10 11 12 12 11 11 10 10 10 10
3 4 3 5 7 6 6 4 3 4 8 14 21 21 20 20 20 18 17 15 14 12 9 8 7 7 7 5 3 0 2 3 4 5 7 10 10 10 11 12 12 12 13 14 14 13 13 14 14
4 7 7 8 9 5 5 9 9 9 14 18 20 19 21 21 21 19 17 15 13 10 8 9 9 9 7 4 2 3 5 7 7 11 14 14 15 17 16 13 13 14 14 16 17 16 16 17 17
9 6 10 11 10 5 7 9 8 14 19 20 20 22 22 20 19 17 15 13 11 10 10 9 9 8 6 6 6 7 11 12 14 15 16 16 17 18 17 15 17 23 21 18 19 19 19 19 21
8 12 7 6 11 5 9 10 9 15 19 19 22 22 21 20 19 17 15 12 10 10 10 10 7 6 7 10 9 12 13 13 14 15 13 19 20 20 20 21 22 23 19 17 20 16 20 26 23
8 8 10 12 8 10 10 13 10 14 18 19 21 21 20 19 17 15 11 11 7 10 9 8 7 8 9 9 10 10 9 10 13 13 18 22 22 23 22 17 21 23 18 15 15 22 18 18 21
8 9 12 9 4 10 12 13 12 15 19 20 20 20 19 18 9 12 14 14 11 11 11 8 8 6 1 2 2 6 8 11 10 12 21 21 20 19 18 16 17 18 15 18 20 21 18 20 18
9 10 10 10 3 9 11 9 6 10 17 18 17 18 19 13 9 6 7 14 15 9 8 7 5 4 4 4 6 10 12 11 14 14 15 17 17 17 15 16 14 15 14 13 14 15 16 17 17
12 11 7 7 3 11 7 14 6 3 6 7 10 10 7 10 10 7 12 14 13 17 9 10 7 7 7 9 10 11 11 11 10 9 9 11 14 14 14 14 13 14 13 12 14 13 13 15 14
7 2 7 6 7 9 2 10 2 6 7 6 13 10 6 7 7 13 17 18 18 16 9 6 6 6 9 12 14 15 12 10 9 8 9 9 11 12 13 13 13 13 13 13 13 12 14 14 16
5 3 4 6 9 7 11 6 6 9 9 8 7 4 6 8 13 17 17 16 15 12 9 3 6 9 10 12 14 13 13 10 9 8 10 10 10 11 12 13 13 13 13 14 15 15 15 15 16
1 6 6 6 7 9 5 5 5 7 10 6 6 8 12 17 18 20 15 14 11 6 4 2 3 8 11 13 15 14 13 12 11 10 10 11 13 11 12 13 14 15 16 16 18 17 17 16 16
4 6 6 4 4 5 4 7 7 7 10 9 8 12 15 18 16 15 14 7 6 5 2 4 6 5 9 13 13 16 16 16 13 13 12 14 14 14 14 14 15 17 20 21 20 19 17 16 16
5 5 4 7 8 9 7 4 5 5 6 9 11 15 17 16 9 5 5 4 3 2 3 3 2 3 8 12 14 14 15 13 14 14 14 13 13 14 15 16 17 19 21 20 21 20 16 15 16
3 5 3 7 4 7 2 6 5 4 5 8 13 14 12 7 6 9 4 1 1 1 3 4 2 4 9 12 13 14 15 15 15 14 13 12 13 14 16 18 19 22 21 20 17 18 16 15 16
5 3 5 3 2 3 3 2 4 9 3 9 11 10 8 11 9 5 2 3 3 2 2 3 7 8 9 10 12 14 17 17 13 12 12 13 13 15 17 20 23 19 19 16 18 18 16 16 17
1 1 3 3 2 1 4 3 7 9 9 11 10 7 3 4 5 1 6 5 4 1 2 4 6 6 8 11 15 20 21 15 13 12 13 13 15 16 18 21 22 17 17 15 18 16 18 20 19
4 3 3 1 2 0 3 2 4 2 12 12 9 7 5 5 3 4 5 5 5 3 4 5 5 6 12 17 19 23 17 15 14 14 13 14 15 16 20 20 22 20 18 18 20 19 18 18 18
Wind_Direction
222 245 248 257 250 234 256 202 338 162 147 103 102 355 56 27 4 34 142 153 148 150 171 168 163 175 61 326 304 305 311 298 219 74 24 26 24 15 2 6 14 62 85 139 123 145 178 175 166
222 224 241 257 255 247 241 45 206 101 103 122 117 121 106 84 75 128 131 136 143 144 150 168 184 183 289 292 280 272 259 157 105 97 50 56 50 27 6 6 17 9 139 111 136 168 201 191 186
217 203 253 241 249 253 271 82 127 120 136 153 122 62 64 83 118 131 140 136 133 133 132 170 179 270 270 250 225 208 162 108 99 93 77 74 53 30 12 1 1 360 289 224 201 216 223 201 191
204 218 235 250 251 182 294 300 157 147 128 141 130 90 78 104 130 141 138 136 135 128 118 192 263 256 219 194 180 149 130 111 96 86 73 60 45 30 18 2 352 342 324 306 296 273 248 199 198
217 243 253 248 264 255 261 290 169 167 137 144 172 120 116 128 136 140 141 139 135 145 142 190 188 170 143 130 125 122 116 108 102 95 83 67 53 35 22 9 357 344 336 329 320 304 262 211 206
222 271 244 248 223 210 42 167 170 161 146 140 135 128 119 142 143 143 139 141 146 146 134 125 131 127 117 104 94 88 87 87 86 88 86 78 59 46 32 20 8 354 341 332 327 307 277 224 219
256 240 270 289 274 244 175 171 188 167 152 143 143 127 135 153 156 150 149 146 134 130 133 125 112 105 98 93 90 81 76 75 73 71 69 61 51 39 31 20 9 358 349 340 332 313 282 251 230
241 261 251 234 259 263 137 167 183 189 132 145 167 166 172 167 158 152 154 145 138 130 131 126 116 109 95 83 81 74 67 61 62 63 57 47 35 26 21 5 341 345 347 345 337 328 310 287 254
223 245 251 257 260 53 161 171 158 161 149 165 172 168 159 160 157 155 157 155 151 143 129 115 109 108 99 78 55 50 40 38 35 24 16 19 4 358 2 317 326 320 335 342 344 337 333 323 284
236 254 300 5 313 291 185 212 163 166 161 159 149 139 153 159 163 164 169 169 167 165 154 132 103 94 89 91 341 358 1 314 319 325 335 334 312 325 321 328 319 309 309 325 331 331 328 1 287
207 262 34 298 313 262 169 167 179 199 195 184 176 156 159 163 169 172 174 179 176 177 170 167 154 97 169 226 239 284 306 300 313 311 302 296 298 297 310 308 317 305 299 310 302 303 304 271 267
248 254 298 348 238 184 182 151 177 221 64 161 166 163 163 170 176 177 179 180 179 177 176 181 176 153 141 149 148 241 323 295 311 292 300 306 308 297 296 294 293 302 288 276 286 278 270 276 267
246 273 275 221 184 181 159 178 103 155 112 149 156 164 171 175 179 179 176 173 173 175 184 175 173 156 141 125 136 98 46 357 320 331 314 306 309 305 300 292 292 286 283 283 280 276 274 268 267
3 269 196 175 157 163 199 169 224 161 149 152 162 171 178 181 182 178 179 178 182 182 187 176 169 155 147 146 149 90 342 330 333 327 312 308 303 301 300 298 294 285 284 283 277 272 266 268 264
190 220 194 192 180 157 190 199 220 162 164 164 173 181 185 187 187 188 186 181 183 179 179 173 170 169 169 184 227 282 301 310 308 301 298 298 298 299 299 298 294 290 289 286 283 276 273 271 268
242 250 237 151 187 157 221 268 133 172 174 180 186 188 190 192 191 190 192 189 175 179 182 175 177 175 200 231 264 284 298 303 303 301 299 297 298 296 297 298 294 291 293 286 282 284 279 275 265
209 266 217 186 204 153 227 281 142 183 193 193 195 194 194 193 195 198 193 191 187 184 184 186 175 193 232 264 275 287 293 296 302 304 303 299 297 293 292 294 291 291 293 293 289 291 290 279 276
299 240 241 258 168 220 231 257 162 193 202 209 204 201 200 199 198 207 206 179 190 181 170 182 197 219 255 274 281 291 301 306 305 305 297 295 293 293 294 297 293 293 294 294 292 285 284 283 287
282 271 268 266 205 250 257 265 270 190 215 215 210 208 208 203 182 176 199 175 218 195 172 168 203 237 283 1 338 321 312 307 311 307 297 294 294 297 302 302 305 304 304 291 287 286 287 282 281
242 257 264 262 285 226 272 271 277 205 218 224 220 216 218 175 155 176 166 191 185 145 145 129 119 107 67 10 342 319 315 307 305 305 302 299 298 301 307 309 313 309 310 310 308 301 295 284 281
241 259 292 299 147 228 265 260 194 197 218 219 231 251 264 181 181 168 170 149 142 142 128 109 75 8 339 347 345 333 325 320 321 311 312 307 310 313 318 321 320 318 321 315 314 310 305 298 285
267 341 277 276 265 301 272 296 246 81 87 68 35 32 67 102 136 155 143 145 146 108 101 60 350 301 329 338 338 336 339 329 317 318 305 313 317 325 328 329 327 325 319 317 312 309 303 299 292
358 331 284 281 278 293 246 256 93 120 94 47 31 64 101 116 124 122 115 117 108 91 86 147 278 296 329 341 339 342 339 333 321 323 316 316 318 323 320 319 321 319 317 307 307 304 296 291 286
311 264 242 258 280 258 19 290 71 22 343 353 63 91 114 122 123 116 103 92 86 65 76 223 264 313 335 341 345 348 340 333 327 323 322 318 315 314 311 310 310 313 313 308 302 297 294 291 280
247 298 306 281 254 274 59 292 57 14 10 47 107 113 120 121 115 108 111 88 63 81 240 239 291 341 335 346 346 346 341 331 327 323 317 312 310 313 307 312 314 310 304 303 298 293 290 290 285
331 308 285 283 298 301 282 290 76 34 63 96 114 123 129 126 118 114 50 67 322 258 180 209 247 333 336 340 342 341 334 326 320 313 305 306 311 319 317 318 318 316 308 302 296 300 283 283 287
92 276 19 278 243 266 271 100 128 65 99 124 126 132 122 111 92 98 72 69 57 277 228 228 255 321 338 339 342 338 332 325 313 305 307 311 320 314 314 319 314 316 312 302 289 299 290 284 285
358 49 247 226 265 264 236 218 49 334 231 159 156 119 110 123 124 116 70 334 344 326 256 280 290 302 327 337 338 336 338 335 320 317 321 320 317 316 324 319 318 317 314 310 307 299 288 284 283
326 222 47 88 40 288 292 76 9 352 297 165 158 138 45 146 154 78 15 16 354 342 277 276 289 308 319 330 335 336 337 329 321 318 315 316 313 315 320 317 325 312 306 309 315 307 304 295 283
41 62 84 221 159 279 322 72 7 96 118 155 156 194 239 185 83 46 9 346 343 322 288 283 291 308 310 317 323 331 330 327 317 313 313 311 311 307 308 319 317 311 318 316 317 310 305 300 298